Weather History for EHEH - May, 2013

Change the Weather History Date:

Wednesday, May 15, 2013

  Actual Average Record
Temperature  
Mean Temperature 56 °F -  
Max Temperature 64 °F 66 °F 84 °F (2000)
Min Temperature 49 °F 48 °F 36 °F (2014)
Degree Days  
Heating Degree Days 8    
Growing Degree Days 6 (Base 50)    
Moisture  
Dew Point 45 °F    
Average Humidity 69    
Maximum Humidity 94    
Minimum Humidity 29    
Precipitation  
Precipitation 0.00 in - - ()
Sea Level Pressure  
Sea Level Pressure 29.51 in    
Wind  
Wind Speed 9 mph ()    
Max Wind Speed 17 mph    
Max Gust Speed 29 mph    
Visibility 6.4 miles    
Events Rain    
Averages and records for this station are not official NWS values.
T = Trace of Precipitation, MM = Missing Value Source: Averaged Metar Reports

Daily Weather History Graph

Daily Weather History Graph

Search for Another Location

Airport or City:

Trip Planner

Search our weather history database for the weather conditions in past years. The results will help you decide how hot, cold, wet, or windy it might be!

Date:

Astronomy

May. 15, 2013 Rise Set
Actual Time 5:46 AM CEST 9:23 PM CEST
Civil Twilight 5:05 AM CEST 10:05 PM CEST
Nautical Twilight 4:09 AM CEST 11:02 PM CEST
Astronomical Twilight 2:45 AM CEST 12:28 AM CEST
Moon 10:12 AM CEST (5/15) 12:56 AM CEST (5/15)
Length of Visible Light 16h 59m
Length of Day
15h 37m
Waxing Crescent, 24% of the Moon is Illuminated
May 15
Waxing Crescent
May 18
First Quarter
May 25
Full
May 31
Last Quarter
Jun 8
New

Hourly Weather History & Observations

Time (CEST) Temp. Dew Point Humidity Pressure Visibility Wind Dir Wind Speed Gust Speed Precip Events Conditions
12:25 AM 50.0 °F 48.2 °F 94% 29.59 in 6.2 mi ESE 8.1 mph - N/A   Mostly Cloudy
12:55 AM 50.0 °F 46.4 °F 87% 29.56 in 6.2 mi ESE 8.1 mph - N/A   Overcast
1:25 AM 50.0 °F 46.4 °F 87% 29.56 in 6.2 mi ESE 8.1 mph - N/A   Overcast
1:55 AM 50.0 °F 48.2 °F 94% 29.53 in 6.2 mi SE 8.1 mph - N/A   Overcast
2:00 AM 50 °F 47 °F 87% 29.55 in 6 mi ESE 8.9 mph - -   Partly Cloudy
2:25 AM 50.0 °F 46.4 °F 87% 29.53 in 6.2 mi SE 10.4 mph - N/A   Overcast
2:55 AM 50.0 °F 46.4 °F 87% 29.50 in 6.2 mi SE 8.1 mph - N/A   Overcast
3:25 AM 50.0 °F 46.4 °F 87% 29.50 in 6.2 mi SE 9.2 mph - N/A   Mostly Cloudy
3:55 AM 50.0 °F 46.4 °F 87% 29.50 in 6.2 mi SE 8.1 mph - N/A   Overcast
4:25 AM 50.0 °F 44.6 °F 82% 29.47 in 6.2 mi SSE 6.9 mph - N/A   Mostly Cloudy
4:55 AM 51.8 °F 44.6 °F 76% 29.44 in 6.2 mi SE 6.9 mph - N/A   Overcast
5:00 AM 51 °F 45 °F 74% 29.47 in 25 mi SE 6.7 mph - -   Overcast
5:25 AM 51.8 °F 46.4 °F 82% 29.44 in 6.2 mi SSE 8.1 mph - N/A   Overcast
5:55 AM 51.8 °F 46.4 °F 82% 29.44 in 6.2 mi SE 8.1 mph - N/A   Mostly Cloudy
6:25 AM 50.0 °F 46.4 °F 87% 29.44 in 6.2 mi SSE 8.1 mph - N/A   Overcast
6:55 AM 51.8 °F 46.4 °F 82% 29.44 in 6.2 mi South 6.9 mph - N/A   Overcast
7:25 AM 51.8 °F 46.4 °F 82% 29.47 in 6.2 mi South 9.2 mph - N/A   Overcast
7:55 AM 51.8 °F 48.2 °F 88% 29.47 in 6.2 mi South 6.9 mph - N/A   Overcast
8:00 AM 53 °F 48 °F 77% 29.48 in 19 mi South 6.7 mph - - Rain Light Rain Showers
8:25 AM 53.6 °F 48.2 °F 82% 29.47 in 6.2 mi South 8.1 mph - N/A   Overcast
8:55 AM 55.4 °F 48.2 °F 77% 29.47 in 6.2 mi South 10.4 mph - N/A Rain Light Drizzle
9:25 AM 55.4 °F 50.0 °F 82% 29.47 in 6.2 mi SSW 11.5 mph - N/A   Drizzle
9:34 AM 55.4 °F 48.2 °F 77% 29.47 in 6.2 mi SSW 13.8 mph - N/A Rain Light Rain
9:37 AM 55.4 °F 48.2 °F 77% 29.47 in 6.2 mi SSW 13.8 mph - N/A   Overcast
9:50 AM 55.4 °F 48.2 °F 77% 29.47 in 6.2 mi SSW 13.8 mph - N/A   Overcast
9:55 AM 57.2 °F 48.2 °F 72% 29.47 in 6.2 mi SSW 13.8 mph - N/A   Mostly Cloudy
10:06 AM 55.4 °F 48.2 °F 77% 29.47 in 6.2 mi SSW 16.1 mph - N/A   Mostly Cloudy
10:10 AM 55.4 °F 48.2 °F 77% 29.47 in 6.2 mi SSW 15.0 mph - N/A   Mostly Cloudy
10:14 AM 55.4 °F 48.2 °F 77% 29.47 in 6.2 mi SSW 13.8 mph - N/A   Mostly Cloudy
10:25 AM 53.6 °F 48.2 °F 82% 29.50 in 6.2 mi SW 16.1 mph - N/A Rain Light Rain
10:35 AM 53.6 °F 46.4 °F 77% 29.50 in 6.2 mi SW 12.7 mph - N/A   Mostly Cloudy
10:55 AM 53.6 °F 46.4 °F 77% 29.50 in 6.2 mi SW 12.7 mph - N/A   Light Drizzle
11:00 AM 53 °F 46 °F 70% 29.53 in 28 mi SW 11.2 mph - - Rain Light Rain Showers
11:25 AM 51.8 °F 44.6 °F 76% 29.50 in 6.2 mi SSW 15.0 mph - N/A   Drizzle
11:55 AM 53.6 °F 48.2 °F 82% 29.50 in 6.2 mi SW 9.2 mph - N/A   Mostly Cloudy
12:20 PM 55.4 °F 48.2 °F 77% 29.50 in 6.2 mi SW 12.7 mph - N/A   Scattered Clouds
12:25 PM 55.4 °F 48.2 °F 77% 29.50 in 6.2 mi SW 13.8 mph - N/A   Mostly Cloudy
12:26 PM 55.4 °F 48.2 °F 77% 29.50 in 6.2 mi SW 12.7 mph - N/A   Mostly Cloudy
12:55 PM 55.4 °F 46.4 °F 72% 29.50 in 6.2 mi SSW 15.0 mph - N/A   Scattered Clouds
1:25 PM 57.2 °F 44.6 °F 63% 29.50 in 6.2 mi SSW 15.0 mph - N/A   Mostly Cloudy
1:55 PM 59.0 °F 44.6 °F 59% 29.50 in 6.2 mi SSW 12.7 mph - N/A   Overcast
2:00 PM 59 °F 44 °F 48% 29.53 in 28 mi SSW 15.7 mph - -   Partly Cloudy
2:25 PM 59.0 °F 46.4 °F 63% 29.50 in 6.2 mi SSW 11.5 mph - N/A   Mostly Cloudy
2:55 PM 60.8 °F 42.8 °F 52% 29.50 in 6.2 mi SSW 17.3 mph - N/A   Overcast
3:25 PM 62.6 °F 41.0 °F 45% 29.50 in 6.2 mi SSW 16.1 mph 28.8 mph N/A   Mostly Cloudy
3:55 PM 62.6 °F 41.0 °F 45% 29.53 in 6.2 mi SSW 16.1 mph - N/A   Partly Cloudy
4:25 PM 64.4 °F 37.4 °F 37% 29.53 in 6.2 mi SSW 16.1 mph - N/A   Mostly Cloudy
4:55 PM 62.6 °F 37.4 °F 39% 29.53 in 6.2 mi SSW 13.8 mph - N/A   Partly Cloudy
5:00 PM 64 °F 40 °F 29% 29.55 in 22 mi SSW 13.4 mph - -   Partly Cloudy
5:25 PM 62.6 °F 39.2 °F 42% 29.53 in 6.2 mi SSW 12.7 mph - N/A   Partly Cloudy
5:55 PM 60.8 °F 39.2 °F 45% 29.53 in 6.2 mi SW 11.5 mph - N/A   Unknown
6:25 PM 62.6 °F 37.4 °F 39% 29.53 in 6.2 mi SSW 11.5 mph - N/A   Mostly Cloudy
6:55 PM 62.6 °F 37.4 °F 39% 29.53 in 6.2 mi SW 15.0 mph - N/A   Overcast
7:25 PM 60.8 °F 37.4 °F 42% 29.53 in 6.2 mi SW 12.7 mph - N/A   Scattered Clouds
7:55 PM 60.8 °F 39.2 °F 45% 29.56 in 6.2 mi SW 11.5 mph - N/A   Partly Cloudy
8:00 PM 60 °F 40 °F 35% 29.57 in 28 mi SW 11.2 mph - -   Partly Cloudy
8:25 PM 60.8 °F 41.0 °F 48% 29.56 in 6.2 mi WSW 6.9 mph - N/A   Overcast
8:55 PM 59.0 °F 41.0 °F 51% 29.56 in 6.2 mi WSW 9.2 mph - N/A   Overcast
9:25 PM 57.2 °F 41.0 °F 55% 29.56 in 6.2 mi WSW 6.9 mph - N/A   Overcast
9:55 PM 53.6 °F 41.0 °F 62% 29.59 in 6.2 mi SSW 3.5 mph - N/A   Overcast
10:25 PM 53.6 °F 42.8 °F 67% 29.59 in 6.2 mi SSW 2.3 mph - N/A   Overcast
10:55 PM 53.6 °F 42.8 °F 67% 29.59 in 6.2 mi WSW 1.2 mph - N/A   Overcast
11:10 PM 51.8 °F 42.8 °F 71% 29.59 in 6.2 mi WNW 3.5 mph - N/A   Overcast
11:25 PM 51.8 °F 42.8 °F 71% 29.62 in 6.2 mi NW 5.8 mph - N/A   Overcast
11:55 PM 51.8 °F 42.8 °F 71% 29.59 in 6.2 mi North 4.6 mph - N/A   Overcast